Location: ?????????
(54.7630°N, 39.4991°E)
Time: 06:29:58
(UTC+00:00)

Cosmos 1954 Rocket - Pass Details

Date: 14 April 2026
Orbit: 748 x 776 km, 74.0° (Epoch: 12 May)

Event Time Altitude Azimuth Distance (km) Brightness Sun altitude
Rises 21:14:38 0° 332° (NNW) 3,257 8.3 -25.6°
Reaches altitude 10° 21:17:01 10° 332° (NNW) 2,323 7.3 -25.6°
Maximum altitude 21:22:18 85° 246° (WSW) 776 3.9 -25.6°
Enters shadow 21:22:31 81° 194° (SSW) 780 3.8 -25.6°
